Tiempo cada hora Abdulkarimovo

Hoy, 25 Octubre, Domingo

Tiempo Temperatura Precipitaciones Viento Presión Humedad
00:00 +7°C° 0.1 mm 3 mps 718 mmHg 97%
01:00 +7°C° 0.1 mm 3 mps 718 mmHg 98%
02:00 +7°C° 0 mm 3 mps 718 mmHg 97%
03:00 +7°C° 0 mm 3 mps 718 mmHg 97%
04:00 +5°C° 0 mm 3 mps 719 mmHg 97%
05:00 +6°C° 0 mm 2 mps 719 mmHg 97%
06:00 +6°C° 0 mm 2 mps 719 mmHg 97%
07:00 +6°C° 0 mm 2 mps 719 mmHg 97%
08:00 +7°C° 0 mm 2 mps 719 mmHg 94%
09:00 +8°C° 0 mm 2 mps 719 mmHg 90%
10:00 +9°C° 0 mm 2 mps 719 mmHg 87%
11:00 +9°C° 0 mm 3 mps 719 mmHg 85%
12:00 +10°C° 0 mm 3 mps 718 mmHg 83%
13:00 +10°C° 0 mm 3 mps 718 mmHg 81%
14:00 +10°C° 0.2 mm 2 mps 717 mmHg 86%
15:00 +9°C° 0.2 mm 2 mps 717 mmHg 92%
16:00 +9°C° 0.2 mm 2 mps 717 mmHg 97%
17:00 +9°C° 1.4 mm 2 mps 716 mmHg 97%
18:00 +9°C° 1.4 mm 3 mps 715 mmHg 97%
19:00 +9°C° 1.4 mm 3 mps 715 mmHg 98%
20:00 +8°C° 1 mm 4 mps 714 mmHg 97%
21:00 +10°C° 1 mm 4 mps 713 mmHg 96%
22:00 +9°C° 1 mm 5 mps 713 mmHg 96%
23:00 +8°C° 0.5 mm 5 mps 712 mmHg 94%

Mañana, 26 Octubre, Lunes

Tiempo Temperatura Precipitaciones Viento Presión Humedad
00:00 +8°C° 0.5 mm 4 mps 712 mmHg 93%
01:00 +8°C° 0.5 mm 4 mps 711 mmHg 91%
02:00 +7°C° 0.2 mm 4 mps 711 mmHg 90%
03:00 +7°C° 0.2 mm 5 mps 711 mmHg 89%
04:00 +6°C° 0.2 mm 5 mps 711 mmHg 88%
05:00 +4°C° 0.2 mm 6 mps 711 mmHg 87%
06:00 +4°C° 0.2 mm 7 mps 712 mmHg 86%
07:00 +2°C° 0.2 mm 8 mps 712 mmHg 84%
08:00 +1°C° 0.1 mm 8 mps 713 mmHg 84%
09:00 +1°C° 0.1 mm 8 mps 714 mmHg 83%
10:00 0°C° 0.1 mm 8 mps 714 mmHg 83%
11:00 0°C° 0 mm 8 mps 715 mmHg 78%
12:00 0°C° 0 mm 8 mps 715 mmHg 74%
13:00 0°C° 0 mm 8 mps 716 mmHg 69%
14:00 -1°C° 0 mm 8 mps 716 mmHg 70%
15:00 -1°C° 0 mm 8 mps 717 mmHg 71%
16:00 -2°C° 0 mm 7 mps 717 mmHg 72%
17:00 -3°C° 0 mm 7 mps 717 mmHg 74%
18:00 -3°C° 0 mm 7 mps 717 mmHg 76%
19:00 -4°C° 0 mm 7 mps 718 mmHg 78%
20:00 -4°C° 0.1 mm 6 mps 718 mmHg 80%
21:00 -4°C° 0.1 mm 6 mps 718 mmHg 83%
22:00 -4°C° 0.1 mm 6 mps 718 mmHg 86%
23:00 -6°C° 0.1 mm 7 mps 718 mmHg 82%

Pasado mañana, 27 Octubre, Martes

Tiempo Temperatura Precipitaciones Viento Presión Humedad
00:00 -6°C° 0.1 mm 7 mps 718 mmHg 79%
01:00 -6°C° 0.1 mm 7 mps 718 mmHg 76%
02:00 -6°C° 0 mm 8 mps 718 mmHg 76%
03:00 -6°C° 0 mm 9 mps 719 mmHg 76%
04:00 -6°C° 0 mm 9 mps 719 mmHg 76%
05:00 -6°C° 0 mm 9 mps 719 mmHg 76%
06:00 -6°C° 0 mm 9 mps 720 mmHg 77%
07:00 -8°C° 0 mm 9 mps 720 mmHg 77%
08:00 -6°C° 0 mm 9 mps 720 mmHg 75%
09:00 -5°C° 0 mm 9 mps 721 mmHg 72%
10:00 -5°C° 0 mm 9 mps 721 mmHg 70%
11:00 -4°C° 0 mm 9 mps 722 mmHg 69%
12:00 -4°C° 0 mm 9 mps 722 mmHg 68%
13:00 -2°C° 0 mm 8 mps 723 mmHg 67%
14:00 -2°C° 0 mm 8 mps 723 mmHg 69%
15:00 -4°C° 0 mm 8 mps 724 mmHg 72%
16:00 -4°C° 0 mm 8 mps 724 mmHg 74%
17:00 -4°C° 0 mm 7 mps 725 mmHg 76%
18:00 -4°C° 0 mm 7 mps 726 mmHg 77%
19:00 -5°C° 0 mm 6 mps 726 mmHg 79%
20:00 -5°C° 0 mm 6 mps 727 mmHg 80%
21:00 -5°C° 0 mm 6 mps 727 mmHg 80%
22:00 -5°C° 0 mm 5 mps 728 mmHg 81%
23:00 -6°C° 0 mm 5 mps 728 mmHg 81%

28 Octubre, Miércoles

Tiempo Temperatura Precipitaciones Viento Presión Humedad
00:00 -6°C° 0 mm 5 mps 728 mmHg 82%
01:00 -5°C° 0 mm 4 mps 729 mmHg 82%
02:00 -5°C° 0 mm 4 mps 729 mmHg 82%
03:00 -5°C° 0 mm 3 mps 729 mmHg 82%
04:00 -5°C° 0 mm 3 mps 730 mmHg 82%
05:00 -5°C° 0 mm 3 mps 730 mmHg 81%
06:00 -5°C° 0 mm 2 mps 731 mmHg 79%
07:00 -5°C° 0 mm 2 mps 731 mmHg 77%
08:00 -3°C° 0 mm 2 mps 731 mmHg 69%
09:00 -2°C° 0 mm 2 mps 732 mmHg 60%
10:00 -1°C° 0 mm 2 mps 732 mmHg 51%
11:00 +1°C° 0 mm 2 mps 733 mmHg 48%
12:00 +2°C° 0 mm 2 mps 733 mmHg 44%
13:00 +3°C° 0 mm 2 mps 733 mmHg 40%
14:00 +4°C° 0 mm 1 mps 733 mmHg 45%
15:00 +3°C° 0 mm 1 mps 734 mmHg 51%
16:00 +2°C° 0 mm 1 mps 734 mmHg 56%
17:00 +1°C° 0 mm 1 mps 734 mmHg 60%
18:00 0°C° 0 mm 1 mps 734 mmHg 65%
19:00 -1°C° 0 mm 1 mps 735 mmHg 69%
20:00 -1°C° 0 mm 1 mps 735 mmHg 69%
21:00 -1°C° 0 mm 1 mps 735 mmHg 69%
22:00 -2°C° 0 mm 0 mps 735 mmHg 68%
23:00 -2°C° 0 mm 1 mps 735 mmHg 66%

29 Octubre, Jueves

Tiempo Temperatura Precipitaciones Viento Presión Humedad
00:00 -2°C° 0 mm 1 mps 736 mmHg 65%
01:00 -2°C° 0 mm 1 mps 736 mmHg 63%
02:00 -2°C° 0 mm 1 mps 736 mmHg 62%
03:00 -2°C° 0 mm 1 mps 736 mmHg 61%
04:00 -2°C° 0 mm 1 mps 736 mmHg 60%
05:00 -2°C° 0 mm 1 mps 736 mmHg 61%
06:00 -2°C° 0 mm 1 mps 736 mmHg 61%
07:00 -2°C° 0 mm 1 mps 737 mmHg 62%
08:00 -3°C° 0 mm 2 mps 737 mmHg 60%
09:00 -1°C° 0 mm 2 mps 737 mmHg 57%
10:00 0°C° 0 mm 3 mps 737 mmHg 54%
11:00 +1°C° 0 mm 3 mps 737 mmHg 53%
12:00 +2°C° 0 mm 3 mps 737 mmHg 51%
13:00 +3°C° 0 mm 4 mps 737 mmHg 50%
14:00 +2°C° 0 mm 3 mps 737 mmHg 54%
15:00 +2°C° 0 mm 3 mps 737 mmHg 59%
16:00 +1°C° 0 mm 3 mps 736 mmHg 63%
17:00 0°C° 0 mm 3 mps 737 mmHg 66%
18:00 -1°C° 0 mm 3 mps 737 mmHg 69%
19:00 -3°C° 0 mm 4 mps 737 mmHg 71%
20:00 -2°C° 0 mm 4 mps 737 mmHg 70%
21:00 -2°C° 0 mm 4 mps 737 mmHg 68%
22:00 -2°C° 0 mm 4 mps 737 mmHg 67%
23:00 -2°C° 0 mm 4 mps 737 mmHg 66%

30 Octubre, Viernes

Tiempo Temperatura Precipitaciones Viento Presión Humedad
00:00 -2°C° 0 mm 4 mps 737 mmHg 65%
01:00 -2°C° 0 mm 4 mps 737 mmHg 64%
02:00 -2°C° 0 mm 4 mps 737 mmHg 64%
03:00 -1°C° 0 mm 3 mps 737 mmHg 64%
04:00 -1°C° 0 mm 3 mps 736 mmHg 64%
05:00 -1°C° 0 mm 3 mps 737 mmHg 65%
06:00 -2°C° 0 mm 3 mps 737 mmHg 65%
07:00 -2°C° 0 mm 3 mps 737 mmHg 65%
08:00 0°C° 0 mm 3 mps 737 mmHg 61%
09:00 0°C° 0 mm 4 mps 737 mmHg 56%
10:00 +3°C° 0 mm 4 mps 737 mmHg 52%
11:00 +3°C° 0 mm 4 mps 737 mmHg 51%
12:00 +4°C° 0 mm 3 mps 737 mmHg 50%
13:00 +5°C° 0 mm 3 mps 736 mmHg 49%
14:00 +4°C° 0 mm 3 mps 736 mmHg 53%
15:00 +3°C° 0 mm 3 mps 736 mmHg 57%
16:00 +3°C° 0 mm 2 mps 736 mmHg 61%
17:00 +2°C° 0 mm 2 mps 736 mmHg 61%
18:00 +1°C° 0 mm 2 mps 736 mmHg 61%
19:00 -1°C° 0 mm 2 mps 735 mmHg 61%
20:00 -1°C° 0 mm 2 mps 735 mmHg 57%
21:00 -1°C° 0 mm 2 mps 735 mmHg 54%
22:00 -1°C° 0 mm 2 mps 735 mmHg 50%
23:00 -1°C° 0 mm 2 mps 735 mmHg 48%
Mostrar más

Necesitamos Su Consentimiento

Meteoprog y nuestros Proveedores de Servicios pueden almacenar y acceder a sus datos personales como cookies, identificadores de dispositivo u otras tecnologías similares de su dispositivo y procesar dichos datos para personalizar contenido y anuncios, además de ofrecer funciones de redes sociales y analizar el tráfico.

  • Almacenar y/o acceder a información en su dispositivo

    Se puede almacenar o acceder a cookies, identificadores de dispositivo u otra información de su dispositivo para los fines anteriormente indicados.

  • Anuncios y contenido personalizados, medición de anuncios y contenido, percepciones del público, y desarrollo de productos

    Los anuncios y el contenido pueden personalizarse en base a su perfil. Se pueden añadir más datos para personalizar mejor los anuncios y contenidos. Se puede medir el rendimiento de los anuncios y contenidos. Se puede obtener la percepción sobre el público que ha visto los anuncios y contenidos. Dichos datos pueden usarse para desarrollar o mejorar la experiencia del usuario, sistemas y software.

Al hacer clic en ‘Estoy De Acuerdo’ usted permitirá el uso de las cookies, identificadores de dispositivo, balizas web u otras tecnologías similares indicadas. Su configuración puede cambiarse desde el navegador de su dispositivo.

Para ciertos fines, los intereses legítimos pueden ser considerados por encima del consentimiento. Puede leer más sobre ello en nuestra Política de Privacidad y Cookies.